Aérodrome :
LOGIN :

S'inscrire | Disclaimer

   EN    FR    IT 

 










Légende :    VFR   VFR Marginal   IFR   IFR Intensif   IFR Très Intensif
Visi : 
Plafond : 
>= 8 km
>= 3000ft
5 à 8 km
1000 à 3000 ft
1500m à 5 km
500 à 1000 ft
800 à 1500m
200 à 500 ft
< 800m
< 200 ft
Symboles :   Orages  Brouillard  Fortes neiges  Fortes précipitations  Vent > 20 kt
SIGMETs :   Divers  Orages  Givrage  Turbulence  Onde Orograph.  Cendres Volcan.







- Altitude de l'aérodrome : 34 ft
- Code IATA : BLK
- Voir les cartes d'approche


EGNH - Blackpool

DERNIER METAR :
  • 201550Z 31009KT CAVOK 17/09 Q1019

METARs EXPIRÉS :
  • 201520Z 30010KT CAVOK 17/09 Q1020
  • 201450Z 30009KT CAVOK 17/10 Q1020
  • 201420Z 30010KT CAVOK 17/10 Q1020
  • 201350Z 30009KT CAVOK 18/11 Q1020
  • 201320Z 29009KT CAVOK 19/12 Q1020
  • 201250Z 27008KT CAVOK 18/09 Q1020

TAF TAF EGNH
Valide du 20 à 15h jusqu'au 20 à 20h UTC


201403Z 2015/2020 32007KT CAVOK
ATIS : +44 1253 343 434 (x8315)
Pas de NOTAMs connus pour ce terrain.



MET'MAP, la Météo Aéronautique d'un coup d'oeil ! - Copyright ORBIFLY Décembre 2007 - Disclaimer

ORBIFLY MET'MAP TEAM :

Programmation & Développement : Alexandra Zaïnal
Conception & Développement : Baudouin d'Aumeries
Co-Programmation & Développement : Marc-Olivier Méhu
Soutien technique & logistique : Manuel Goepfert

Contact : metmap@orbifly.com




SOURCES & CREDITS :

   NOAA